[[{"header":{"parameterUnit":"m.s-1","parameterCategory":1,"la1":30.2991,"la2":30.254,"lo1":-89.0895,"lo2":-89.0444,"dy":0.0017,"dx":0.0017,"nx":28,"ny":28,"refTime":"2024-12-07T03:00:00:Z","depth":0,"parameterNumber":2,"parameterNumberName":"U-component_of_WINDS"},"data":[0,0,0,0,0,0,0,0,0,0,0,0,0,0,0,0,0,0,0,0,0,0,0,0,0,0,0,0,0,0,0,0,0,0,0,0,0,0,0,0,0,0,0,0,0,0,0,0,0,0,0,0,0,0,0,0,0,0,-1.4123,-1.4124,0,-1.4166,-1.4166,-1.4167,-1.4204,-1.4205,-1.4205,-1.4205,-1.4249,-1.425,-1.425,0,0,0,0,0,0,0,0,0,0,0,0,0,-1.4075,-1.4076,-1.4123,-1.4124,-1.4124,-1.4166,-1.4166,-1.4167,-1.4204,-1.4205,-1.4205,-1.4206,-1.4249,-1.425,-1.425,0,0,0,0,0,0,0,0,0,0,0,0,0,-1.4104,-1.4076,-1.4123,-1.4148,-1.4151,-1.4165,-1.4166,-1.4167,-1.4204,-1.4205,-1.4205,-1.4206,-1.4248,-1.4249,-1.4251,-1.4244,0,0,-1.4254,-1.4255,0,0,0,0,0,0,0,0,-1.4103,-1.4106,-1.4144,-1.4146,-1.4149,-1.418,-1.4165,-1.4193,-1.4204,-1.4184,-1.4205,-1.4206,-1.4226,-1.4229,-1.4235,-1.4246,-1.4248,-1.4254,-1.4255,-1.4255,-1.4256,0,0,0,0,0,0,0,-1.4101,-1.4105,-1.414,-1.4144,-1.4148,-1.4157,-1.4162,-1.417,-1.42,-1.4186,-1.4188,-1.4193,-1.4227,-1.4234,-1.4236,-1.4249,-1.4254,-1.4255,-1.4256,-1.4256,-1.4256,-1.4256,0,0,0,0,0,0,-1.4095,-1.4103,-1.4139,-1.4141,-1.4127,-1.4157,-1.4163,-1.417,-1.42,-1.4206,-1.4192,-1.4194,-1.4232,-1.4235,-1.4238,-1.4232,-1.4255,-1.4256,-1.4257,-1.4257,-1.4256,-1.4255,0,0,0,0,0,0,-1.4094,-1.4098,-1.4137,-1.4123,-1.4128,-1.4157,-1.4165,-1.417,-1.4177,-1.4206,-1.4211,-1.4194,-1.4232,-1.4237,-1.4242,-1.4234,-1.4257,-1.4258,-1.4258,-1.4257,-1.4256,-1.422,0,0,0,0,0,0,-1.4092,-1.4097,-1.4095,-1.4122,-1.4129,-1.414,-1.4164,-1.4171,-1.4179,-1.4182,-1.4208,-1.4213,-1.4233,-1.424,-1.4243,-1.4236,-1.4259,-1.4258,-1.4257,-1.4256,-1.4222,-1.4218,-1.4214,0,0,0,0,0,-1.409,-1.4084,-1.4095,-1.4099,-1.4127,-1.414,-1.4144,-1.4167,-1.4178,-1.4176,-1.4194,-1.4212,-1.4235,-1.4241,-1.4244,-1.4237,-1.4259,-1.4258,-1.4256,-1.4224,-1.4219,-1.4214,0,0,0,0,0,0,-1.4055,-1.4088,-1.41,-1.4102,-1.4118,-1.4146,-1.4145,-1.4161,-1.4174,-1.4176,-1.4204,-1.421,-1.4212,-1.4226,-1.4232,-1.4232,-1.4249,-1.4248,-1.4223,-1.4219,-1.4215,-1.4211,-1.426,0,0,0,0,0,-1.4047,-1.4055,-1.4083,-1.4082,-1.4089,-1.4115,-1.4122,-1.4138,-1.4156,-1.4162,-1.4181,-1.4197,-1.4208,-1.4214,-1.4226,-1.4224,-1.423,-1.4221,-1.4217,-1.4214,-1.4213,-1.4212,-1.4208,-1.425,-1.425,-1.425,0,0,-1.4031,-1.405,-1.4053,-1.4075,-1.4089,-1.4096,-1.4121,-1.4127,-1.4133,-1.4164,-1.417,-1.4184,-1.4204,-1.4206,-1.4208,-1.4217,-1.4202,-1.4212,-1.4209,-1.421,-1.421,-1.4206,-1.4202,-1.4249,-1.4249,-1.425,0,0,-1.4006,-1.4022,-1.4022,-1.4035,-1.4056,-1.4074,-1.4074,-1.4099,-1.411,-1.4116,-1.4139,-1.4146,-1.4164,-1.4177,-1.4186,-1.4165,-1.4181,-1.4168,-1.4147,-1.4146,-1.4143,-1.414,-1.4131,-1.4128,-1.4167,-1.4166,-1.4166,0,-1.3984,-1.3995,-1.402,-1.4025,-1.4034,-1.4062,-1.4062,-1.4074,-1.4097,-1.4102,-1.4113,-1.4135,-1.415,-1.4155,-1.415,-1.4157,-1.4157,-1.4164,-1.4141,-1.4139,-1.4136,-1.4129,-1.4125,-1.4165,-1.4165,-1.4165,-1.4165,0,-1.3967,-1.3974,-1.3972,-1.3993,-1.4002,-1.4004,-1.4029,-1.4035,-1.405,-1.4067,-1.4073,-1.4092,-1.4107,-1.411,-1.4125,-1.4117,-1.4121,-1.4136,-1.4154,-1.413,-1.4123,-1.412,-1.4162,-1.4163,-1.4163,-1.4164,0,0,-1.3921,-1.3955,-1.3954,-1.3963,-1.3988,-1.3994,-1.3997,-1.4012,-1.4016,-1.4031,-1.4034,-1.4049,-1.4062,-1.4072,-1.4089,-1.4088,-1.4069,-1.4103,-1.4104,-1.4095,-1.4059,-1.4047,-1.4043,-1.4081,-1.408,-1.408,-1.4057,0,-1.3899,-1.3906,-1.3928,-1.3929,-1.3936,-1.3962,-1.3965,-1.398,-1.3996,-1.4003,-1.402,-1.4029,-1.4047,-1.4053,-1.4053,-1.4071,-1.4062,-1.4073,-1.4083,-1.4083,-1.4076,-1.404,-1.4027,-1.4005,-1.4055,-1.4054,-1.4054,0,-1.3874,-1.3887,-1.3888,-1.3911,-1.3915,-1.3917,-1.3932,-1.3939,-1.3957,-1.3968,-1.3979,-1.3998,-1.4002,-1.4019,-1.4026,-1.4033,-1.4038,-1.4048,-1.4047,-1.4048,-1.4066,-1.4039,-1.3998,-1.3994,-1.405,-1.405,-1.4051,0,-1.3839,-1.3856,-1.3859,-1.3866,-1.3894,-1.3895,-1.3906,-1.3925,-1.3932,-1.3945,-1.395,-1.3963,-1.397,-1.398,-1.4002,-1.4012,-1.4006,-1.4025,-1.4014,-1.4014,-1.4011,-1.4011,-1.397,-1.4016,-1.4016,-1.4016,-1.4016,0,-1.3811,-1.3811,-1.3843,-1.3845,-1.3845,-1.387,-1.3869,-1.3883,-1.3899,-1.3904,-1.3928,-1.3932,-1.3961,-1.3968,-1.3985,-1.3987,-1.3991,-1.3999,-1.4004,-1.3997,-1.3995,-1.4,-1.4002,-1.4016,-1.4016,-1.4016,-1.4016,0,-1.3772,-1.3793,-1.3798,-1.3823,-1.383,-1.3828,-1.385,-1.3852,-1.3869,-1.3874,-1.3877,-1.3903,-1.3912,-1.3935,-1.3951,-1.3963,-1.396,-1.3969,-1.3953,-1.3956,-1.3944,-1.3944,-1.3904,-1.3899,-1.3949,-1.3949,-1.3948,0,-1.3752,-1.3752,-1.3777,-1.3782,-1.3792,-1.38,-1.3807,-1.3831,-1.3838,-1.3857,-1.3857,-1.3868,-1.3879,-1.3892,-1.3912,-1.3924,-1.3933,-1.3918,-1.3935,-1.3927,-1.3931,-1.393,-1.393,-1.3914,-1.3913,-1.3913,-1.3912,0,-1.3715,-1.3726,-1.3735,-1.3747,-1.3755,-1.3766,-1.3779,-1.3781,-1.3809,-1.3815,-1.3824,-1.3832,-1.3848,-1.3858,-1.3873,-1.3885,-1.3903,-1.3907,-1.3905,-1.3897,-1.3888,-1.3891,-1.3942,-1.3907,-1.3908,-1.3908,-1.3908,-1.3909,-1.3684,-1.3685,-1.3702,-1.3711,-1.3723,-1.3734,-1.3737,-1.3754,-1.3762,-1.3776,-1.3791,-1.3798,-1.3816,-1.3837,-1.3848,-1.3854,-1.3864,-1.3861,-1.386,-1.3859,-1.3855,-1.3887,-1.3857,-1.3857,-1.3858,-1.3858,-1.3858,0,-1.3648,-1.366,-1.3668,-1.3684,-1.3691,-1.3707,-1.3722,-1.3726,-1.3733,-1.3747,-1.3756,-1.3767,-1.3777,-1.3797,-1.3809,-1.381,-1.3819,-1.3813,-1.3812,-1.3814,-1.3847,-1.3847,-1.3805,-1.3805,-1.3805,-1.3805,-1.3805,-1.3806,-1.3629,-1.3631,-1.3643,-1.3651,-1.3663,-1.367,-1.3677,-1.3687,-1.3699,-1.3709,-1.3717,-1.3731,-1.3747,-1.376,-1.377,-1.3776,-1.3779,-1.377,-1.3778,-1.3807,-1.3812,-1.3817,-1.3817,-1.377,-1.377,-1.3745,-1.3745,-1.3745]},{"header":{"parameterUnit":"m.s-1","parameterCategory":1,"la1":30.2991,"la2":30.254,"lo1":-89.0895,"lo2":-89.0444,"dy":0.0017,"dx":0.0017,"nx":28,"ny":28,"refTime":"2024-12-07T03:00:00:Z","depth":0,"parameterNumber":3,"parameterNumberName":"V-component_of_WINDS"},"data":[0,0,0,0,0,0,0,0,0,0,0,0,0,0,0,0,0,0,0,0,0,0,0,0,0,0,0,0,0,0,0,0,0,0,0,0,0,0,0,0,0,0,0,0,0,0,0,0,0,0,0,0,0,0,0,0,0,0,4.0017,4.0017,0,4.0055,4.0055,4.0055,4.0004,4.0002,4.0,3.9998,4.0036,4.0038,4.0041,0,0,0,0,0,0,0,0,0,0,0,0,0,3.9901,3.9903,4.0017,4.0017,4.0018,4.0054,4.0055,4.0055,4.0004,4.0002,4.0,3.9997,4.0035,4.0038,4.0041,0,0,0,0,0,0,0,0,0,0,0,0,0,3.9946,3.9904,4.0017,3.9997,3.9995,4.0054,4.0055,4.0056,4.0004,4.0002,3.9999,3.9996,4.0034,4.0038,4.0042,4.0122,0,0,4.0054,4.0056,0,0,0,0,0,0,0,0,3.9944,3.9951,3.9999,3.9998,3.9997,4.0022,4.0028,4.0078,4.0005,4.0001,3.9998,3.9995,4.0033,4.0037,4.005,4.0124,4.0125,4.0054,4.0057,4.0059,4.006,0,0,0,0,0,0,0,3.9941,3.9949,4.0032,4.0,3.9998,3.9986,3.9989,4.0037,4.0032,4.0001,3.9997,4.0003,4.0032,4.0046,4.0051,4.0126,4.0054,4.0058,4.006,4.0062,4.027,4.0273,0,0,0,0,0,0,3.994,3.9946,4.003,4.0033,3.9963,3.999,3.9994,4.0016,4.0031,4.0031,4.0005,4.0,4.0041,4.0046,4.0052,4.0149,4.0059,4.0062,4.0065,4.0267,4.0271,4.0274,0,0,0,0,0,0,3.9938,3.9948,4.0029,3.9989,3.9998,3.9995,4.0021,4.0019,4.0033,4.0034,4.0033,4.0021,4.0039,4.0046,4.0106,4.015,4.0064,4.0068,4.0264,4.0268,4.0273,4.0343,0,0,0,0,0,0,3.9935,3.9947,3.9978,3.999,4.0,4.0082,4.0023,4.0021,4.004,4.0034,4.0049,4.0048,4.0037,4.01,4.011,4.0154,4.0071,4.026,4.0266,4.0271,4.0337,4.035,4.0361,0,0,0,0,0,3.9931,3.9995,3.998,3.999,4.0038,4.0085,4.0091,4.0077,4.0044,4.0075,4.0076,4.0048,4.0143,4.0106,4.0117,4.0163,4.0257,4.0264,4.0271,4.0332,4.0347,4.036,0,0,0,0,0,0,3.9987,3.9996,3.9979,4.0049,4.0067,4.0076,4.0114,4.0093,4.012,4.0114,4.0095,4.0098,4.0163,4.0168,4.0128,4.0243,4.0194,4.0204,4.0237,4.0252,4.0264,4.0262,4.0074,0,0,0,0,0,4.0008,4.0045,4.0051,4.0113,4.0122,4.0117,4.0137,4.0125,4.0142,4.0149,4.0155,4.0172,4.0206,4.0229,4.026,4.0337,4.0341,4.0374,4.0386,4.0396,4.0405,4.0448,4.0464,4.0297,4.0297,4.0297,0,0,4.0051,4.0061,4.0085,4.0124,4.0136,4.0176,4.0124,4.0167,4.0197,4.0155,4.0213,4.0218,4.0236,4.0306,4.0337,4.0313,4.0451,4.0405,4.0412,4.0416,4.0457,4.0473,4.0487,4.0302,4.0301,4.03,0,0,4.015,4.0161,4.0214,4.0228,4.0248,4.0245,4.0258,4.0271,4.0273,4.033,4.0301,4.0336,4.0394,4.041,4.0425,4.0533,4.0509,4.0544,4.0606,4.0649,4.0662,4.0674,4.0715,4.0729,4.0552,4.0552,4.0552,0,4.0201,4.026,4.0244,4.0291,4.031,4.0276,4.0331,4.0345,4.0374,4.0388,4.036,4.0435,4.0445,4.0519,4.0546,4.0558,4.0574,4.0542,4.0661,4.0673,4.0684,4.0722,4.0738,4.0556,4.0556,4.0556,4.0555,0,4.0323,4.0365,4.0406,4.0436,4.046,4.051,4.0503,4.0528,4.0515,4.0515,4.0575,4.0586,4.062,4.0636,4.0622,4.0709,4.0694,4.0664,4.0616,4.0704,4.074,4.0755,4.0563,4.0561,4.056,4.0559,0,0,4.0459,4.0482,4.0497,4.0512,4.0532,4.0564,4.0614,4.0648,4.0672,4.0693,4.0735,4.0787,4.076,4.0778,4.0766,4.0803,4.0892,4.0769,4.0769,4.0794,4.0991,4.1015,4.1032,4.0875,4.0878,4.088,4.099,0,4.056,4.0647,4.0635,4.0719,4.0759,4.0727,4.0771,4.0789,4.079,4.0824,4.0825,4.0863,4.0824,4.0835,4.087,4.0873,4.0931,4.0865,4.0916,4.0918,4.0915,4.1051,4.1075,4.1179,4.1004,4.1006,4.1008,0,4.0689,4.0718,4.0806,4.0823,4.0839,4.0879,4.0911,4.0943,4.0963,4.0961,4.0983,4.0964,4.1015,4.0965,4.1036,4.0991,4.1011,4.1016,4.102,4.1026,4.097,4.1062,4.1211,4.1228,4.103,4.1028,4.1026,0,4.0783,4.0842,4.0904,4.0917,4.0937,4.0966,4.0976,4.0993,4.1016,4.1043,4.1058,4.1091,4.111,4.1136,4.1128,4.1091,4.1202,4.115,4.1203,4.1204,4.1229,4.1228,4.1386,4.1239,4.1239,4.1238,4.1238,0,4.0898,4.0954,4.0946,4.0984,4.1047,4.1033,4.1095,4.1101,4.1117,4.1156,4.113,4.1167,4.1153,4.119,4.1183,4.1245,4.1253,4.1254,4.1252,4.1258,4.1258,4.1272,4.1265,4.1242,4.1241,4.1241,4.124,0,4.1013,4.101,4.1076,4.109,4.1096,4.1141,4.1154,4.119,4.119,4.124,4.1251,4.1251,4.1293,4.1287,4.1333,4.1329,4.1407,4.1395,4.1401,4.1399,4.1454,4.145,4.1627,4.1651,4.1487,4.1488,4.149,0,4.1088,4.1131,4.1151,4.1176,4.1189,4.1229,4.1252,4.124,4.1266,4.1293,4.1327,4.1367,4.1398,4.1467,4.1472,4.1508,4.1498,4.1558,4.1503,4.1509,4.1502,4.1501,4.1506,4.1569,4.1571,4.1572,4.1574,0,4.1223,4.122,4.1254,4.129,4.1319,4.1346,4.137,4.1392,4.1383,4.1413,4.1457,4.1481,4.153,4.1571,4.1605,4.1615,4.1595,4.1591,4.1606,4.1613,4.1616,4.1618,4.1433,4.1587,4.1586,4.1585,4.1584,4.1584,4.1321,4.1359,4.138,4.1421,4.1438,4.1462,4.1498,4.1503,4.154,4.1579,4.157,4.162,4.1641,4.1685,4.1699,4.1738,4.1717,4.1737,4.1743,4.1749,4.1757,4.1608,4.1744,4.1744,4.1743,4.1743,4.1743,0,4.1457,4.1469,4.1507,4.1543,4.1575,4.1553,4.1579,4.1608,4.1652,4.1674,4.1706,4.1758,4.1798,4.1806,4.1845,4.1875,4.1866,4.1886,4.1884,4.1888,4.1773,4.1757,4.1892,4.1892,4.1892,4.1892,4.1892,4.1892,4.1531,4.1595,4.1595,4.1667,4.1679,4.1729,4.1746,4.1769,4.1786,4.1845,4.1879,4.1884,4.1901,4.1941,4.1977,4.1979,4.1995,4.2019,4.2017,4.191,4.1895,4.1881,4.1867,4.2022,4.2023,4.2129,4.213,4.2131]}]]